Terug naar catalogus

STARLINK-35925

ActiefCommunicatieVLEO
NORAD 66887·PAYLOAD·🇺🇸 United States

Gelanceerd Dec 4, 2025 vanaf Vandenberg Space Force Base

Loading…

Volgende Passages (komende 24 uur)

TLE

VersSource: CelesTrak SupGP

Epoch: Sep 15, 2026, 03:14 UTC

1 66887C 25283K   26258.13520833 -.00070211  00000+0 -20743-2 0  2581
2 66887  53.1576 220.8766 0001334  90.4931   1.1848 15.34427624    13

Volg STARLINK-35925 in realtime met AllMySat

Download on the App Store